Regional Weather Roundup
Issued by NWS

Home | Current Version | Previous Version | Graphics & Text | Print | Product List | Glossary On
Versions: 1 2 3 4 5 6 7 8 9 10 11 12 13 14 15 16 17 18 19 20 21 22 23 24 25 26 27 28 29 30 31 32 33 34 35 36 37 38 39 40 41 42 43 44 45 46 47 48 49 50
000
ASUS43 KLOT 210406
RWRIL

ILLINOIS REGIONAL WEATHER ROUNDUP
NATIONAL WEATHER SERVICE CHICAGO/ROMEOVILLE IL
1100 PM CDT SAT SEP 20 2014

NOTE: "FAIR" INDICATES FEW OR NO CLOUDS BELOW 12,000 FEET WITH NO
SIGNIFICANT WEATHER AND/OR OBSTRUCTIONS TO VISIBILITY.

* THESE STATIONS ARE NOT UNDER NWS QUALITY CONTROL. THEY ALSO MAY NOT
  REPORT WEATHER SUCH AS PRECIPITATION OR FOG.

ILZ001-002-007-009-015-016-024-210500-
NORTHWEST ILLINOIS

CITY           SKY/WX    TMP DP  RH WIND       PRES   REMARKS
MOLINE         CLEAR     71  67  87 SW9       29.79F
STERLING*      CLEAR     70  64  83 W12       29.77S
SAVANNA*       LGT RAIN  66  60  80 NW13G29   29.82R
$$

ILZ003-004-008-010-011-017-018-210500-
NORTH CENTRAL ILLINOIS

CITY           SKY/WX    TMP DP  RH WIND       PRES   REMARKS
ROCKFORD       MOCLDY    67  64  90 S8        29.74F
ROCHELLE*      CLEAR     65  62  89 SW7       29.77F
DE KALB*       PTCLDY    67  64  91 SW8       29.77F
PERU*          CLEAR     69  67  92 SW7       29.80F
$$

ILZ005-006-012>014-019>023-210500-
NORTHEAST ILLINOIS

CITY           SKY/WX    TMP DP  RH WIND       PRES   REMARKS
CHICAGO-OHARE  PTCLDY    70  66  87 SW7       29.74F
CHICAGO-MIDWAY MOCLDY    71  67  87 SW7       29.75F
AURORA         PTCLDY    69  65  86 SW9       29.77F FOG
LANSING*       CLEAR     66  66  98 SW5       29.78S FOG
JOLIET*        PTCLDY    67  66  96 S7        29.79S FOG
WAUKEGAN       PTCLDY    65  62  90 SW5       29.72F
DUPAGE AIRPORT PTCLDY    69  66  90 SW12      29.76F
KANKAKEE*      MOCLDY    69  68  95 SW12      29.82R
WHEELING       CLEAR     70  66  87 SW7       29.76F
MORRIS*        RAIN      69  68  96 SW10      29.78S
ROMEOVILLE*    MOCLDY    69  68  99 SW9       29.77F FOG
NORTHERLY ISL    N/A     71  65  81 S9          N/A
$$

LMZ740>746-210500-
SOUTHERN LAKE MICHIGAN

STATION/POSITION SKY/WX   TEMP    WIND        PRES    VSBY  WAVE
                          AIR SEA DIR/SP/G                  HT/PER
                          (F)     (DEG/KT/KT) (MB)    (MI)  (FT/S)
SOUTHERN BUOY              67 63  280/ 10/ 17 1006.6F         1/ 3
WAUKEGAN HARBOR            69     230/ 10/ 12   N/A
HARRISON CRIB              71     200/ 18/ 20   N/A
BURNHAM HARBOR             71     200/  5/  8   N/A
CALUMET HARBOR             69     190/  5/  5 1007.0F
MICHIGAN CITY              69     170/ 11/ 14   N/A
MICHIGAN CITY 6N           67 66  200/  8/ 10   N/A           1
ST. JOSEPH                 67 65  160/ 10/ 14   N/A           1/ 3
$$

ILZ025>027-034>036-040-047-049-050-058-095>099-210500-
WEST-CENTRAL ILLINOIS

CITY           SKY/WX    TMP DP  RH WIND       PRES   REMARKS
QUINCY         PTCLDY    72  69  90 SW8       29.90R
GALESBURG*     CLEAR     70  66  89 SW7       29.84S
MACOMB*        CLEAR     69  68  96 SW7       29.88S FOG
JACKSONVILLE*  LGT RAIN  73  71  92 W5        29.90R
PITTSFIELD*    MOCLDY    76  69  78 W6        29.91R
$$

ILZ028>032-037-038-041>044-048-051>054-059>061-210500-
CENTRAL ILLINOIS

CITY           SKY/WX    TMP DP  RH WIND       PRES   REMARKS
PONTIAC        CLEAR     72  70  94 SW8       29.82S
DECATUR        LGT RAIN  73  68  84 SW9       29.88R
PEORIA         CLEAR     73  67  81 W8        29.85R
LACON*         CLEAR     71  66  85 SW9       29.81S
LINCOLN*       PTCLDY    72  69  92 SW3       29.84S
SPRINGFIELD    MOCLDY    73  69  87 W7        29.88S
TAYLORVILLE    CLOUDY    73  66  78 SW12      29.88S
$$

ILZ033-039-045-046-055>057-062-063-210500-
EAST-CENTRAL ILLINOIS

CITY           SKY/WX    TMP DP  RH WIND       PRES   REMARKS
CHAMPAIGN      LGT RAIN  72  69  90 S12       29.85F
DANVILLE*      RAIN      70  68  93 SW10      29.82S
RANTOUL*       TSTM      72  68  88 SW8       29.87S
MATTOON        CLOUDY    73  67  81 SW9       29.87S
PARIS*         MOCLDY    71  69  93 S8        29.87S
$$

ILZ079-100>102-210500-
SOUTHWEST ILLINOIS

CITY           SKY/WX    TMP DP  RH WIND       PRES   REMARKS
ALTON          PTCLDY    74  67  77 SW8       29.91F
BELLEVILLE     CLEAR     72  68  88 CALM      29.92F
CAHOKIA*       CLEAR     76  67  73 SW6       29.92S
SPARTA*        CLEAR     73  68  84 SW6       29.96S
$$

ILZ064>066-069>071-074>076-080>082-084>086-088>090-092>094-210500-
SOUTH-CENTRAL ILLINOIS

CITY           SKY/WX    TMP DP  RH WIND       PRES   REMARKS
CARBONDALE     CLEAR     70  66  87 SW5       29.96S
CAIRO*         CLEAR     72  67  85 CALM      29.98S
EFFINGHAM*     MOCLDY    73  65  76 SW9       29.89F
MARION         CLEAR     70  68  94 S6        29.97R
MT. VERNON     PTCLDY    70  64  83 S3        29.95S
CENTRALIA*     PTCLDY    73  65  76 SW10      29.93F
SALEM*         PTCLDY    75  69  82 S9        29.92F
METROPOLIS*    CLEAR     70  68  95 SW3       29.97F
$$

ILZ067-068-072-073-078-083-087-091-210500-
SOUTHEAST ILLINOIS

CITY           SKY/WX    TMP DP  RH WIND       PRES   REMARKS
LAWRENCEVILLE  CLEAR     70  67  90 S9        29.91S
FLORA*         CLEAR     71  67  85 SW8       29.92F
FAIRFIELD*     CLEAR    N/A N/A N/A SW5       29.93S
HARRISBURG*    CLEAR     69  69  97 CALM      29.97R
ROBINSON*      CLEAR     74  69  82 SW12      29.90F
CARMI*         CLEAR     73  69  87 SW7       29.94S
$$

ABBREVIATIONS USED IN REMARKS
   TC - TEMPERATURE IN CELSIUS
  WCI - WIND CHILL INDEX
   HX - HEAT INDEX
  VSB - VISIBILITY
$$



USA.gov is the U.S. government's official web portal to all federal, state and local government web resources and services.